STARLINK-32302, 61621

Orbit data source: Space-Track

STARLINK-32302, 61621 is a payload satellite owned by SpaceX/Seattle (US) in LEO that was launched on Wed, 23 Oct 2024 UTC via an FALCON 9 launch vehicle from the Air Force Eastern Test Range (AFETR). Payload-class satellites include a variety of spacecraft equipped with specific instruments for various scientific and technological missions. These include communications satellites like Starlink; space stations such as the ISS; scientific satellites like the Hubble; Earth observation satellites from companies like Planet Labs, Umbra, and HawkEye 360; GPS; miniature CubeSats for education and research; and military/defense satellites.

Loading next visibility...
Identifier
61621, 2024-191A
Orbit
LEO
Country
Flag of USUS
Related business
Manufacturer
SpaceX/Seattle
Mission
Operational Commercial Communications
Bus & Motor
STARLINK V2M, Unknown motor
Mass
730 kg wet, ~700 kg dry
Launch date (UTC)
2024-10-23 (10 months ago)
Launch vehicle
FALCON 9
Launch site
Air Force Eastern Test Range (AFETR)
Object type
Payload
Rocket body
Debris
Shape & HBR
Box + 2 Pan, 14.5 m
Radar Cross Section
36.964 m², Large (>1 m²)

Expand to show TLE details & history
Last TLE update: 11 hours ago

TLE from 11 hours ago
0 STARLINK-32302
1 61621U 24191A   25243.11576409  .00001492  00000-0  63729-4 0  9999
2 61621  43.0041 150.5014 0001185 268.6342  91.4374 15.27590515 49148
Epoch: 2025-08-31T02:46Z
TLE epoch observation values (Epoch: 2025-08-31T02:46:42.017Z)
Latitude
-0.00001°
Longitude
129.28598°
Altitude
482.814 km
Speed
7.626 km/s
True Right ascension
10h 02m 00s
True Declination
0° 00' 00"
Sunlit
Object was in daylight at epoch
Visualization orbit readout
Latitude
Unknown
Longitude
Unknown
Altitude
Unknown
Speed
Unknown
Apparent Right ascension
Unknown
Apparent Declination
Unknown
Sunlit
N/A
Visualization observer readout
Local Sidereal Time
05:51:05
Azimuth
Unknown
Elevation
Unknown
Doppler factor
Unknown
Orbital elements
Apogee altitude
485.775 km
Perigee altitude
484.149 km
Semi-major axis
6,863.099 km
Eccentricity
0.00012
Inclination
43.0041°
RAAN
150.5014°
Arg. of periapsis
268.6342°
True anomaly
91.45097°
Mean anomaly
91.4374°
Eccentric anomaly
91.44419°
Mean motion
3.81736 °/min
Orbital period
94.31 mins
BSTAR
0.000063729
Loading maneuver chart data...
Computing Atmospheric mass density...
Loading historical data...
Loading historical data...
Loading historical data...
Loading historical data...
Loading historical data...
Loading historical data...
Loading historical data...

Documentation

Showing up to 5 results
|